When you browse on this site, cookies collect data to enhance your experience and personalize the content and advertising you see.
Visit our Privacy Policy to learn more. By continuing to use the site, you agree to this use of cookies and data.
  • In Slovakia
  • List of Countries
  • For 7 days
  • Water Temperature
  • Satellite Maps
  • Weather Map
  • Weather Widgets
  • user-avatar
    Login

    Hourly Weather Elbasan

    Today, 26 May, Sunday

    Time Temperature Precipitation Wind Pressure Humidity
    00:00 +15°C° 0 mm 1 mps 736 mmHg 85%
    01:00 +15°C° 0 mm 1 mps 736 mmHg 84%
    02:00 +15°C° 0 mm 1 mps 735 mmHg 82%
    03:00 +15°C° 0 mm 1 mps 735 mmHg 81%
    04:00 +15°C° 0 mm 1 mps 735 mmHg 80%
    05:00 +18°C° 0 mm 1 mps 735 mmHg 74%
    06:00 +19°C° 0 mm 1 mps 735 mmHg 68%
    07:00 +21°C° 0 mm 1 mps 735 mmHg 63%
    08:00 +23°C° 0 mm 1 mps 735 mmHg 56%
    09:00 +25°C° 0 mm 1 mps 735 mmHg 49%
    10:00 +27°C° 0 mm 1 mps 735 mmHg 43%
    11:00 +27°C° 0 mm 1 mps 735 mmHg 44%
    12:00 +27°C° 0 mm 2 mps 735 mmHg 44%
    13:00 +28°C° 0 mm 3 mps 735 mmHg 45%
    14:00 +27°C° 0.1 mm 3 mps 735 mmHg 50%
    15:00 +26°C° 0.1 mm 3 mps 735 mmHg 55%
    16:00 +25°C° 0.1 mm 3 mps 734 mmHg 60%
    17:00 +24°C° 0.1 mm 2 mps 734 mmHg 65%
    18:00 +23°C° 0.1 mm 1 mps 734 mmHg 71%
    19:00 +21°C° 0.1 mm 1 mps 734 mmHg 77%
    20:00 +21°C° 0 mm 1 mps 734 mmHg 77%
    21:00 +21°C° 0 mm 1 mps 734 mmHg 77%
    22:00 +19°C° 0 mm 2 mps 734 mmHg 78%
    23:00 +19°C° 0 mm 2 mps 734 mmHg 78%

    Tomorrow, 27 May, Monday

    Time Temperature Precipitation Wind Pressure Humidity
    00:00 +19°C° 0 mm 2 mps 734 mmHg 79%
    01:00 +19°C° 0 mm 2 mps 734 mmHg 79%
    02:00 +20°C° 0 mm 1 mps 734 mmHg 80%
    03:00 +19°C° 0 mm 1 mps 734 mmHg 80%
    04:00 +19°C° 0 mm 1 mps 734 mmHg 81%
    05:00 +19°C° 0.1 mm 2 mps 733 mmHg 80%
    06:00 +19°C° 0.1 mm 2 mps 733 mmHg 80%
    07:00 +20°C° 0.1 mm 2 mps 733 mmHg 79%
    08:00 +23°C° 0 mm 2 mps 733 mmHg 73%
    09:00 +24°C° 0 mm 3 mps 733 mmHg 66%
    10:00 +26°C° 0 mm 3 mps 733 mmHg 59%
    11:00 +26°C° 0.1 mm 3 mps 733 mmHg 58%
    12:00 +26°C° 0.1 mm 3 mps 733 mmHg 58%
    13:00 +26°C° 0.1 mm 2 mps 732 mmHg 57%
    14:00 +26°C° 0.1 mm 2 mps 732 mmHg 59%
    15:00 +26°C° 0.1 mm 2 mps 732 mmHg 60%
    16:00 +25°C° 0.1 mm 2 mps 731 mmHg 62%
    17:00 +24°C° 0.2 mm 2 mps 731 mmHg 67%
    18:00 +23°C° 0.2 mm 2 mps 731 mmHg 73%
    19:00 +21°C° 0.2 mm 1 mps 731 mmHg 79%
    20:00 +20°C° 0.5 mm 1 mps 731 mmHg 81%
    21:00 +19°C° 0.5 mm 2 mps 731 mmHg 82%
    22:00 +18°C° 0.5 mm 2 mps 732 mmHg 84%
    23:00 +18°C° 0.1 mm 2 mps 732 mmHg 84%

    Day after tomorrow, 28 May, Tuesday

    Time Temperature Precipitation Wind Pressure Humidity
    00:00 +17°C° 0.1 mm 2 mps 731 mmHg 84%
    01:00 +17°C° 0.1 mm 2 mps 731 mmHg 84%
    02:00 +17°C° 0 mm 2 mps 731 mmHg 84%
    03:00 +17°C° 0 mm 2 mps 731 mmHg 84%
    04:00 +16°C° 0 mm 2 mps 731 mmHg 84%
    05:00 +18°C° 0 mm 2 mps 731 mmHg 78%
    06:00 +19°C° 0 mm 2 mps 731 mmHg 72%
    07:00 +21°C° 0 mm 2 mps 731 mmHg 66%
    08:00 +22°C° 0.1 mm 3 mps 731 mmHg 62%
    09:00 +24°C° 0.1 mm 3 mps 731 mmHg 57%
    10:00 +25°C° 0.1 mm 4 mps 731 mmHg 52%
    11:00 +25°C° 0.7 mm 4 mps 731 mmHg 55%
    12:00 +25°C° 0.7 mm 4 mps 731 mmHg 58%
    13:00 +23°C° 0.7 mm 4 mps 731 mmHg 61%
    14:00 +23°C° 1.1 mm 4 mps 731 mmHg 65%
    15:00 +22°C° 1.1 mm 4 mps 731 mmHg 69%
    16:00 +21°C° 1.1 mm 4 mps 731 mmHg 72%
    17:00 +20°C° 0.5 mm 3 mps 731 mmHg 78%
    18:00 +19°C° 0.5 mm 2 mps 731 mmHg 83%
    19:00 +19°C° 0.5 mm 1 mps 731 mmHg 88%
    20:00 +18°C° 0.1 mm 1 mps 732 mmHg 89%
    21:00 +18°C° 0.1 mm 1 mps 732 mmHg 90%
    22:00 +16°C° 0.1 mm 1 mps 732 mmHg 90%
    23:00 +16°C° 0 mm 1 mps 732 mmHg 90%

    29 May, Wednesday

    Time Temperature Precipitation Wind Pressure Humidity
    00:00 +16°C° 0 mm 1 mps 732 mmHg 90%
    01:00 +15°C° 0 mm 1 mps 732 mmHg 90%
    02:00 +15°C° 0 mm 1 mps 732 mmHg 89%
    03:00 +15°C° 0 mm 1 mps 732 mmHg 89%
    04:00 +15°C° 0 mm 1 mps 732 mmHg 89%
    05:00 +16°C° 0 mm 1 mps 733 mmHg 84%
    06:00 +19°C° 0 mm 1 mps 733 mmHg 80%
    07:00 +20°C° 0 mm 1 mps 734 mmHg 75%
    08:00 +20°C° 0 mm 2 mps 734 mmHg 70%
    09:00 +21°C° 0 mm 2 mps 734 mmHg 66%
    10:00 +22°C° 0 mm 3 mps 734 mmHg 61%
    11:00 +24°C° 0.2 mm 3 mps 734 mmHg 59%
    12:00 +24°C° 0.2 mm 3 mps 734 mmHg 58%
    13:00 +25°C° 0.2 mm 4 mps 734 mmHg 57%
    14:00 +23°C° 0.2 mm 4 mps 734 mmHg 60%
    15:00 +24°C° 0.2 mm 3 mps 734 mmHg 63%
    16:00 +22°C° 0.2 mm 3 mps 734 mmHg 65%
    17:00 +21°C° 0.1 mm 2 mps 734 mmHg 72%
    18:00 +19°C° 0.1 mm 2 mps 734 mmHg 79%
    19:00 +19°C° 0.1 mm 1 mps 734 mmHg 86%
    20:00 +18°C° 0 mm 1 mps 735 mmHg 87%
    21:00 +18°C° 0 mm 1 mps 735 mmHg 87%
    22:00 +16°C° 0 mm 1 mps 735 mmHg 88%
    23:00 +16°C° 0 mm 1 mps 735 mmHg 88%

    30 May, Thursday

    Time Temperature Precipitation Wind Pressure Humidity
    00:00 +16°C° 0 mm 1 mps 735 mmHg 87%
    01:00 +16°C° 0 mm 1 mps 735 mmHg 86%
    02:00 +16°C° 0 mm 1 mps 735 mmHg 85%
    03:00 +16°C° 0 mm 1 mps 735 mmHg 84%
    04:00 +16°C° 0 mm 1 mps 735 mmHg 83%
    05:00 +18°C° 0 mm 1 mps 735 mmHg 79%
    06:00 +19°C° 0 mm 1 mps 735 mmHg 74%
    07:00 +21°C° 0 mm 1 mps 736 mmHg 70%
    08:00 +21°C° 0.2 mm 1 mps 736 mmHg 68%
    09:00 +21°C° 0.2 mm 2 mps 736 mmHg 67%
    10:00 +22°C° 0.2 mm 3 mps 736 mmHg 66%
    11:00 +22°C° 0.6 mm 3 mps 736 mmHg 67%
    12:00 +22°C° 0.6 mm 3 mps 736 mmHg 68%
    13:00 +22°C° 0.6 mm 3 mps 736 mmHg 69%
    14:00 +21°C° 0.4 mm 3 mps 736 mmHg 70%
    15:00 +21°C° 0.4 mm 3 mps 735 mmHg 71%
    16:00 +21°C° 0.4 mm 2 mps 735 mmHg 71%
    17:00 +19°C° 0.1 mm 2 mps 736 mmHg 75%
    18:00 +19°C° 0.1 mm 1 mps 736 mmHg 79%
    19:00 +18°C° 0.1 mm 1 mps 736 mmHg 84%
    20:00 +16°C° 0 mm 1 mps 736 mmHg 85%
    21:00 +15°C° 0 mm 1 mps 736 mmHg 86%
    22:00 +15°C° 0 mm 1 mps 737 mmHg 87%
    23:00 +14°C° 0 mm 1 mps 737 mmHg 87%

    31 May, Friday

    Time Temperature Precipitation Wind Pressure Humidity
    00:00 +14°C° 0 mm 1 mps 737 mmHg 86%
    01:00 +13°C° 0 mm 1 mps 736 mmHg 86%
    02:00 +13°C° 0 mm 1 mps 736 mmHg 85%
    03:00 +13°C° 0 mm 1 mps 736 mmHg 84%
    04:00 +12°C° 0 mm 1 mps 736 mmHg 83%
    05:00 +14°C° 0 mm 1 mps 737 mmHg 76%
    06:00 +16°C° 0 mm 1 mps 737 mmHg 69%
    07:00 +17°C° 0 mm 0 mps 737 mmHg 63%
    08:00 +20°C° 0 mm 1 mps 737 mmHg 59%
    09:00 +20°C° 0 mm 2 mps 737 mmHg 55%
    10:00 +21°C° 0 mm 2 mps 737 mmHg 51%
    11:00 +22°C° 0.5 mm 3 mps 737 mmHg 52%
    12:00 +22°C° 0.5 mm 3 mps 737 mmHg 53%
    13:00 +22°C° 0.5 mm 3 mps 737 mmHg 55%
    14:00 +22°C° 0.7 mm 3 mps 737 mmHg 56%
    15:00 +22°C° 0.7 mm 3 mps 737 mmHg 58%
    16:00 +22°C° 0.7 mm 3 mps 737 mmHg 59%
    17:00 +20°C° 0.3 mm 3 mps 737 mmHg 65%
    18:00 +18°C° 0.3 mm 2 mps 737 mmHg 71%
    19:00 +18°C° 0.3 mm 1 mps 737 mmHg 77%
    20:00 +16°C° 0 mm 1 mps 737 mmHg 78%
    21:00 +15°C° 0 mm 2 mps 737 mmHg 79%
    22:00 +15°C° 0 mm 2 mps 738 mmHg 80%
    23:00 +14°C° 0 mm 2 mps 737 mmHg 80%
    Show more